When you browse on this site, cookies collect data to enhance your experience and personalize the content and advertising you see.
Visit our Privacy Policy to learn more. By continuing to use the site, you agree to this use of cookies and data.
  • In United Kingdom
  • List of Countries
  • For 7 days
  • Water Temperature
  • Weather Map
  • Weather Widgets
  • user-avatar
    Login

    Hourly Weather Boa Vista

    Today, 25 February, Tuesday

    Time Temperature Precipitation Wind Pressure Humidity
    00:00 +30°C° 0 mm 3 mps 752 mmHg 64%
    01:00 +30°C° 0 mm 4 mps 752 mmHg 65%
    02:00 +29°C° 0 mm 3 mps 752 mmHg 68%
    03:00 +28°C° 0 mm 4 mps 752 mmHg 68%
    04:00 +28°C° 0 mm 4 mps 752 mmHg 68%
    05:00 +28°C° 0 mm 4 mps 752 mmHg 68%
    06:00 +28°C° 0 mm 5 mps 752 mmHg 66%
    07:00 +29°C° 0 mm 5 mps 753 mmHg 65%
    08:00 +29°C° 0 mm 6 mps 754 mmHg 63%
    09:00 +32°C° 0 mm 6 mps 754 mmHg 57%
    10:00 +34°C° 0 mm 5 mps 754 mmHg 51%
    11:00 +36°C° 0 mm 5 mps 754 mmHg 45%
    12:00 +37°C° 0 mm 5 mps 753 mmHg 42%
    13:00 +38°C° 0 mm 4 mps 752 mmHg 40%
    14:00 +38°C° 0 mm 3 mps 751 mmHg 37%
    15:00 +39°C° 0 mm 3 mps 750 mmHg 34%
    16:00 +39°C° 0 mm 3 mps 749 mmHg 32%
    17:00 +39°C° 0 mm 3 mps 748 mmHg 29%
    18:00 +38°C° 0 mm 3 mps 749 mmHg 32%
    19:00 +36°C° 0 mm 3 mps 749 mmHg 35%
    20:00 +34°C° 0 mm 3 mps 750 mmHg 37%
    21:00 +33°C° 0 mm 3 mps 750 mmHg 43%
    22:00 +31°C° 0 mm 3 mps 751 mmHg 49%
    23:00 +30°C° 0 mm 3 mps 752 mmHg 55%

    Tomorrow, 26 February, Wednesday

    Time Temperature Precipitation Wind Pressure Humidity
    00:00 +30°C° 0 mm 3 mps 751 mmHg 57%
    01:00 +29°C° 0 mm 3 mps 751 mmHg 59%
    02:00 +29°C° 0 mm 4 mps 751 mmHg 60%
    03:00 +28°C° 0 mm 4 mps 751 mmHg 63%
    04:00 +28°C° 0 mm 4 mps 751 mmHg 66%
    05:00 +27°C° 0 mm 5 mps 751 mmHg 68%
    06:00 +27°C° 0 mm 5 mps 752 mmHg 66%
    07:00 +28°C° 0 mm 6 mps 753 mmHg 64%
    08:00 +28°C° 0 mm 6 mps 753 mmHg 61%
    09:00 +32°C° 0 mm 6 mps 753 mmHg 54%
    10:00 +34°C° 0 mm 6 mps 753 mmHg 47%
    11:00 +36°C° 0 mm 5 mps 754 mmHg 40%
    12:00 +37°C° 0 mm 5 mps 752 mmHg 37%
    13:00 +39°C° 0 mm 5 mps 751 mmHg 33%
    14:00 +40°C° 0 mm 4 mps 750 mmHg 30%
    15:00 +40°C° 0 mm 4 mps 750 mmHg 29%
    16:00 +40°C° 0 mm 4 mps 749 mmHg 28%
    17:00 +40°C° 0 mm 4 mps 748 mmHg 28%
    18:00 +37°C° 0 mm 4 mps 749 mmHg 29%
    19:00 +36°C° 0 mm 4 mps 750 mmHg 31%
    20:00 +34°C° 0 mm 4 mps 750 mmHg 33%
    21:00 +33°C° 0 mm 4 mps 751 mmHg 37%
    22:00 +32°C° 0 mm 5 mps 751 mmHg 41%
    23:00 +32°C° 0 mm 5 mps 752 mmHg 45%

    Day after tomorrow, 27 February, Thursday

    Time Temperature Precipitation Wind Pressure Humidity
    00:00 +30°C° 0 mm 5 mps 751 mmHg 48%
    01:00 +29°C° 0 mm 5 mps 751 mmHg 51%
    02:00 +29°C° 0 mm 5 mps 751 mmHg 54%
    03:00 +28°C° 0 mm 5 mps 751 mmHg 57%
    04:00 +27°C° 0 mm 5 mps 751 mmHg 60%
    05:00 +27°C° 0 mm 5 mps 751 mmHg 63%
    06:00 +27°C° 0 mm 5 mps 752 mmHg 61%
    07:00 +28°C° 0 mm 5 mps 753 mmHg 59%
    08:00 +28°C° 0 mm 5 mps 753 mmHg 57%
    09:00 +30°C° 0 mm 5 mps 753 mmHg 50%
    10:00 +33°C° 0 mm 5 mps 753 mmHg 42%
    11:00 +36°C° 0 mm 5 mps 753 mmHg 35%
    12:00 +37°C° 0 mm 5 mps 752 mmHg 32%
    13:00 +38°C° 0 mm 4 mps 751 mmHg 28%
    14:00 +40°C° 0 mm 3 mps 750 mmHg 25%
    15:00 +40°C° 0 mm 3 mps 750 mmHg 25%
    16:00 +40°C° 0 mm 2 mps 749 mmHg 24%
    17:00 +40°C° 0 mm 2 mps 749 mmHg 24%
    18:00 +38°C° 0 mm 2 mps 749 mmHg 27%
    19:00 +36°C° 0 mm 2 mps 750 mmHg 30%
    20:00 +34°C° 0 mm 2 mps 750 mmHg 33%
    21:00 +33°C° 0 mm 3 mps 751 mmHg 36%
    22:00 +31°C° 0 mm 3 mps 751 mmHg 39%
    23:00 +32°C° 0 mm 4 mps 752 mmHg 42%

    28 February, Friday

    Time Temperature Precipitation Wind Pressure Humidity
    00:00 +30°C° 0 mm 5 mps 752 mmHg 46%
    01:00 +29°C° 0 mm 5 mps 751 mmHg 49%
    02:00 +29°C° 0 mm 6 mps 751 mmHg 53%
    03:00 +28°C° 0 mm 6 mps 751 mmHg 56%
    04:00 +27°C° 0 mm 6 mps 751 mmHg 59%
    05:00 +26°C° 0 mm 6 mps 752 mmHg 61%
    06:00 +27°C° 0 mm 6 mps 752 mmHg 60%
    07:00 +27°C° 0 mm 7 mps 753 mmHg 58%
    08:00 +28°C° 0 mm 7 mps 754 mmHg 56%
    09:00 +30°C° 0 mm 6 mps 754 mmHg 50%
    10:00 +33°C° 0 mm 6 mps 754 mmHg 44%
    11:00 +35°C° 0 mm 6 mps 754 mmHg 38%
    12:00 +37°C° 0 mm 5 mps 752 mmHg 35%
    13:00 +38°C° 0 mm 4 mps 751 mmHg 32%
    14:00 +40°C° 0 mm 3 mps 750 mmHg 28%
    15:00 +40°C° 0 mm 3 mps 750 mmHg 28%
    16:00 +40°C° 0 mm 3 mps 749 mmHg 28%
    17:00 +40°C° 0 mm 3 mps 749 mmHg 27%
    18:00 +38°C° 0 mm 3 mps 749 mmHg 30%
    19:00 +36°C° 0 mm 3 mps 750 mmHg 34%
    20:00 +34°C° 0 mm 3 mps 750 mmHg 37%
    21:00 +34°C° 0 mm 3 mps 751 mmHg 38%
    22:00 +33°C° 0 mm 4 mps 751 mmHg 40%
    23:00 +32°C° 0 mm 4 mps 752 mmHg 41%

    29 February, Saturday

    Time Temperature Precipitation Wind Pressure Humidity
    00:00 +32°C° 0 mm 4 mps 752 mmHg 44%
    01:00 +30°C° 0 mm 5 mps 752 mmHg 47%
    02:00 +29°C° 0 mm 5 mps 751 mmHg 50%
    03:00 +29°C° 0 mm 5 mps 752 mmHg 52%
    04:00 +28°C° 0 mm 5 mps 752 mmHg 55%
    05:00 +28°C° 0 mm 5 mps 752 mmHg 57%
    06:00 +28°C° 0 mm 5 mps 753 mmHg 57%
    07:00 +29°C° 0 mm 5 mps 753 mmHg 56%
    08:00 +29°C° 0 mm 6 mps 754 mmHg 56%
    09:00 +32°C° 0 mm 6 mps 754 mmHg 50%
    10:00 +34°C° 0 mm 5 mps 754 mmHg 44%
    11:00 +37°C° 0 mm 5 mps 753 mmHg 37%
    12:00 +39°C° 0 mm 5 mps 752 mmHg 33%
    13:00 +41°C° 0 mm 4 mps 751 mmHg 30%
    14:00 +42°C° 0 mm 4 mps 750 mmHg 26%
    15:00 +42°C° 0 mm 3 mps 750 mmHg 26%
    16:00 +42°C° 0 mm 3 mps 749 mmHg 26%
    17:00 +40°C° 0 mm 3 mps 748 mmHg 26%
    18:00 +39°C° 0 mm 2 mps 749 mmHg 28%
    19:00 +37°C° 0 mm 2 mps 750 mmHg 30%
    20:00 +36°C° 0 mm 2 mps 750 mmHg 33%
    21:00 +35°C° 0 mm 3 mps 751 mmHg 35%
    22:00 +35°C° 0 mm 4 mps 751 mmHg 38%
    23:00 +34°C° 0 mm 5 mps 752 mmHg 40%

    1 March, Sunday

    Time Temperature Precipitation Wind Pressure Humidity
    00:00 +33°C° 0 mm 5 mps 752 mmHg 44%
    01:00 +32°C° 0 mm 4 mps 751 mmHg 48%
    02:00 +30°C° 0 mm 4 mps 751 mmHg 53%
    03:00 +29°C° 0 mm 4 mps 751 mmHg 57%
    04:00 +28°C° 0 mm 4 mps 752 mmHg 61%
    05:00 +27°C° 0 mm 3 mps 752 mmHg 66%
    06:00 +28°C° 0 mm 4 mps 753 mmHg 63%
    07:00 +29°C° 0 mm 4 mps 753 mmHg 60%
    08:00 +29°C° 0 mm 5 mps 754 mmHg 58%
    09:00 +33°C° 0 mm 4 mps 754 mmHg 51%
    10:00 +35°C° 0 mm 3 mps 754 mmHg 44%
    11:00 +37°C° 0 mm 3 mps 754 mmHg 37%
    12:00 +39°C° 0 mm 2 mps 753 mmHg 34%
    13:00 +40°C° 0 mm 2 mps 752 mmHg 32%
    14:00 +41°C° 0 mm 1 mps 750 mmHg 29%
    15:00 +40°C° 0 mm 1 mps 750 mmHg 30%
    16:00 +40°C° 0 mm 1 mps 749 mmHg 30%
    17:00 +39°C° 0 mm 1 mps 749 mmHg 31%
    18:00 +37°C° 0 mm 1 mps 749 mmHg 33%
    19:00 +36°C° 0 mm 1 mps 750 mmHg 36%
    20:00 +34°C° 0 mm 1 mps 750 mmHg 39%
    21:00 +35°C° 0 mm 2 mps 751 mmHg 40%
    22:00 +34°C° 0 mm 3 mps 751 mmHg 41%
    23:00 +34°C° 0 mm 4 mps 752 mmHg 41%
    Show more